Content
SEND FEEDBACK

Daily
Averages
Monthly
Summary
Thailand

PHUKET, THAILAND


Home > Asia > Thailand
Elevation: 33 feet     Latitude: 08 07N     Longitude: 098 19E

WEATHER
 
SELECT A DAY
Number of Records: 234,663;   Date Range: 7/1/96 - 11/20/14
 
SHARE

PRINT THIS DATA

[ ← Previous Day ]
WEATHER ALMANAC - FEBRUARY 3, 2013
[ Next Day → ]
[ °C ]   °F
Weather ElementAverageHighLow
Temperature83 °F91 °F (1:00 pm)75.2 °F (6:30 am)
Dewpoint70.1 °F73.4 °F (8:00 pm)68 °F (12:30 am)
Humidity65.3 %83 % (6:30 am)43 % (1:00 pm)
Barometer29.85 in29.92 in (9:00 am)29.80 in (4:00 am)
Wind Speed5.9 mph12.7 mph (9:30 am)
Weather ElementAverage
Visibility5.5 mi
Wind DirectionE (90.4 °)

Weather ElementTotal
Precipitation---
Cooling Degree Days18.1 (Base 65)
Growing Degree Days33.1 (Base 50)
Averaged from 48 records on February 3, 2013
WEATHER CONDITIONS BREAKOUT
WIND DIRECTION BREAKOUT
WEATHER BY HOUR - FEBRUARY 3, 2013
[ °C ]   °F
Local TimeTemperatureDewpointHumidityBarometerVisibilityWind DirectionWind SpeedGust SpeedPrecipitationEventsConditions
12:30 AM80.6 °F68.0 °F65 %29.89 in5.6 miEast (100°)5.8 mphMostly Cloudy
1:00 AM81.0 °F69.0 °F58 %29.83 in6.0 miEast (90°)8.1 mphMist
1:00 AM82.4 °F68.0 °F62 %29.86 in5.0 miEast (80°)10.4 mphMostly Cloudy
1:30 AM82.4 °F68.0 °F62 %29.86 in5.0 miEast (100°)8.1 mphMostly Cloudy
2:00 AM80.6 °F68.0 °F65 %29.86 in5.0 miEast (90°)9.2 mphMostly Cloudy
2:30 AM80.6 °F68.0 °F65 %29.83 in5.0 miEast (80°)9.2 mphMostly Cloudy
3:00 AM80.6 °F68.0 °F65 %29.83 in5.0 miEast (90°)6.9 mphMostly Cloudy
3:30 AM80.6 °F68.0 °F65 %29.83 in5.0 miEast (90°)6.9 mphMostly Cloudy
4:00 AM80.6 °F68.0 °F65 %29.80 in5.0 miEast (100°)8.1 mphMostly Cloudy
4:30 AM80.6 °F68.0 °F65 %29.80 in5.0 miEast (90°)8.1 mphMostly Cloudy
5:30 AM80.6 °F68.0 °F65 %29.80 in5.0 miEast (90°)8.1 mphMostly Cloudy
6:00 AM77.0 °F69.8 °F78 %29.83 in5.0 miESE (120°)3.5 mphMostly Cloudy
6:30 AM75.2 °F69.8 °F83 %29.83 in5.0 miCalmMostly Cloudy
7:00 AM76.0 °F71.0 °F80 %29.82 in5.0 miENE (60°)3.5 mphMist
7:00 AM77.0 °F69.8 °F78 %29.86 in5.0 miVariable2.3 mphMostly Cloudy
7:30 AM77.0 °F69.8 °F78 %29.86 in5.6 miCalmMostly Cloudy
8:00 AM80.6 °F69.8 °F70 %29.89 in5.6 miENE (70°)3.5 mphMostly Cloudy
9:00 AM82.4 °F71.6 °F70 %29.92 in5.6 miENE (70°)11.5 mphMostly Cloudy
9:30 AM84.2 °F71.6 °F66 %29.92 in5.6 miENE (70°)12.7 mphMostly Cloudy
10:00 AM86.0 °F71.6 °F62 %29.92 in5.6 miEast (80°)9.2 mphMostly Cloudy
10:30 AM86.0 °F69.8 °F58 %29.92 in5.6 miENE (60°)12.7 mphMostly Cloudy
11:00 AM86.0 °F69.8 °F58 %29.92 in5.6 miENE (60°)11.5 mphMostly Cloudy
11:30 AM86.0 °F69.8 °F58 %29.92 in5.6 miEast (80°)6.9 mphMostly Cloudy
12:00 PM87.8 °F69.8 °F55 %29.89 in5.6 miENE (70°)10.4 mphMostly Cloudy
12:30 PM86.0 °F69.8 °F58 %29.86 in5.6 miEast (80°)5.8 mphMostly Cloudy
1:00 PM91.0 °F71.0 °F43 %29.83 in6.0 miEast (80°)3.5 mphScattered Clouds
1:00 PM87.8 °F68.0 °F52 %29.86 in5.6 miEast (80°)10.4 mphMostly Cloudy
1:30 PM87.8 °F68.0 °F52 %29.83 in5.6 miEast (90°)6.9 mphMostly Cloudy
2:00 PM89.6 °F69.8 °F52 %29.83 in5.6 miEast (90°)6.9 mphMostly Cloudy
2:30 PM89.6 °F69.8 °F52 %29.80 in5.6 miENE (70°)6.9 mphMostly Cloudy
3:00 PM89.6 °F69.8 °F52 %29.80 in5.6 miEast (90°)9.2 mphMostly Cloudy
3:30 PM89.6 °F69.8 °F52 %29.80 in5.6 miENE (70°)5.8 mphMostly Cloudy
4:00 PM89.6 °F68.0 °F49 %29.80 in5.6 miENE (70°)5.8 mphMostly Cloudy
4:30 PM89.6 °F69.8 °F52 %29.80 in5.6 miEast (80°)5.8 mphMostly Cloudy
5:00 PM86.0 °F71.6 °F62 %29.80 in5.6 miVariable3.5 mphMostly Cloudy
5:30 PM86.0 °F71.6 °F62 %29.80 in5.6 miWest (270°)8.1 mphMostly Cloudy
6:00 PM84.2 °F71.6 °F66 %29.80 in5.6 miNW (310°)5.8 mphMostly Cloudy
6:30 PM84.2 °F71.6 °F66 %29.83 in5.0 miWNW (290°)5.8 mphMostly Cloudy
7:00 PM84.2 °F71.6 °F66 %29.83 in5.0 miWNW (290°)5.8 mphMostly Cloudy
7:30 PM82.4 °F71.6 °F70 %29.83 in5.0 miNW (320°)4.6 mphMostly Cloudy
8:00 PM82.4 °F73.4 °F74 %29.86 in5.0 miNW (320°)4.6 mphMostly Cloudy
8:30 PM78.8 °F73.4 °F83 %29.86 in6.2 miCalmScattered Clouds
9:00 PM78.8 °F73.4 °F83 %29.89 in6.2 miCalmScattered Clouds
9:30 PM80.6 °F73.4 °F79 %29.89 in6.2 miCalmScattered Clouds
10:00 PM78.8 °F73.4 °F83 %29.92 in6.2 miCalmScattered Clouds
10:30 PM78.8 °F71.6 °F78 %29.92 in6.2 miCalmMostly Cloudy
11:00 PM78.8 °F71.6 °F78 %29.92 in6.2 miCalmMostly Cloudy
11:30 PM78.8 °F69.8 °F74 %29.92 in6.2 miCalmScattered Clouds
Hourly data recorded from VTSP, located miles away from Phuket, Thailand







STORIES FROM OUR PARTNERS